When you browse on this site, cookies collect data to enhance your experience and personalize the content and advertising you see.
Visit our Privacy Policy to learn more. By continuing to use the site, you agree to this use of cookies and data.
  • In Hungary
  • List of Countries
  • For 7 days
  • Water Temperature
  • Satellite Maps
  • Weather Map
  • News
  • Weather Widgets
  • user-avatar
    Login

    Hourly Weather Slobidka

    Today, 17 December, Monday

    Time Temperature Precipitation Wind Pressure Humidity
    00:00 -2°C° 0.2 mm 3 mps 738 mmHg 95%
    01:00 -2°C° 0.2 mm 3 mps 738 mmHg 95%
    02:00 -2°C° 0 mm 2 mps 738 mmHg 95%
    03:00 -2°C° 0.2 mm 2 mps 738 mmHg 95%
    04:00 -2°C° 0.2 mm 2 mps 738 mmHg 95%
    05:00 -2°C° 0.2 mm 2 mps 738 mmHg 95%
    06:00 -3°C° 0.1 mm 2 mps 738 mmHg 95%
    07:00 -3°C° 0.1 mm 2 mps 738 mmHg 95%
    08:00 -3°C° 0 mm 2 mps 738 mmHg 95%
    09:00 -2°C° 0.1 mm 2 mps 738 mmHg 94%
    10:00 -2°C° 0.1 mm 2 mps 738 mmHg 94%
    11:00 -1°C° 0.1 mm 2 mps 738 mmHg 93%
    12:00 -1°C° 0.2 mm 2 mps 738 mmHg 93%
    13:00 +1°C° 0.2 mm 1 mps 738 mmHg 94%
    14:00 0°C° 0 mm 1 mps 738 mmHg 94%
    15:00 0°C° 0.3 mm 1 mps 739 mmHg 95%
    16:00 0°C° 0.3 mm 1 mps 739 mmHg 96%
    17:00 -1°C° 0.3 mm 1 mps 739 mmHg 97%
    18:00 -1°C° 0.1 mm 1 mps 739 mmHg 97%
    19:00 -1°C° 0.1 mm 1 mps 740 mmHg 97%
    20:00 -2°C° 0.1 mm 1 mps 740 mmHg 96%
    21:00 -2°C° 0.1 mm 1 mps 740 mmHg 96%
    22:00 -2°C° 0.1 mm 1 mps 741 mmHg 96%
    23:00 -2°C° 0.1 mm 1 mps 741 mmHg 95%

    Tomorrow, 18 December, Tuesday

    Time Temperature Precipitation Wind Pressure Humidity
    00:00 -2°C° 0 mm 1 mps 741 mmHg 95%
    01:00 -3°C° 0 mm 1 mps 741 mmHg 94%
    02:00 -3°C° 0 mm 1 mps 742 mmHg 93%
    03:00 -3°C° 0 mm 1 mps 742 mmHg 93%
    04:00 -4°C° 0 mm 1 mps 742 mmHg 93%
    05:00 -4°C° 0 mm 1 mps 742 mmHg 93%
    06:00 -4°C° 0 mm 1 mps 742 mmHg 94%
    07:00 -6°C° 0 mm 1 mps 742 mmHg 94%
    08:00 -6°C° 0 mm 1 mps 743 mmHg 94%
    09:00 -4°C° 0 mm 1 mps 743 mmHg 93%
    10:00 -3°C° 0 mm 1 mps 743 mmHg 91%
    11:00 -2°C° 0 mm 1 mps 743 mmHg 90%
    12:00 -2°C° 0 mm 1 mps 743 mmHg 89%
    13:00 -2°C° 0 mm 1 mps 743 mmHg 88%
    14:00 -1°C° 0 mm 1 mps 743 mmHg 87%
    15:00 -2°C° 0 mm 1 mps 743 mmHg 90%
    16:00 -3°C° 0 mm 1 mps 743 mmHg 92%
    17:00 -4°C° 0 mm 1 mps 744 mmHg 95%
    18:00 -4°C° 0 mm 1 mps 744 mmHg 95%
    19:00 -5°C° 0 mm 0 mps 744 mmHg 95%
    20:00 -6°C° 0 mm 0 mps 744 mmHg 95%
    21:00 -6°C° 0 mm 0 mps 744 mmHg 95%
    22:00 -6°C° 0 mm 1 mps 744 mmHg 95%
    23:00 -6°C° 0 mm 1 mps 744 mmHg 94%

    Day after tomorrow, 19 December, Wednesday

    Time Temperature Precipitation Wind Pressure Humidity
    00:00 -6°C° 0 mm 1 mps 744 mmHg 94%
    01:00 -6°C° 0 mm 1 mps 744 mmHg 94%
    02:00 -6°C° 0 mm 1 mps 745 mmHg 94%
    03:00 -6°C° 0 mm 1 mps 744 mmHg 94%
    04:00 -7°C° 0 mm 1 mps 744 mmHg 94%
    05:00 -7°C° 0 mm 1 mps 744 mmHg 94%
    06:00 -7°C° 0 mm 1 mps 744 mmHg 93%
    07:00 -7°C° 0 mm 1 mps 744 mmHg 93%
    08:00 -8°C° 0 mm 1 mps 744 mmHg 92%
    09:00 -7°C° 0 mm 1 mps 744 mmHg 91%
    10:00 -6°C° 0 mm 2 mps 744 mmHg 89%
    11:00 -5°C° 0 mm 2 mps 745 mmHg 88%
    12:00 -5°C° 0 mm 2 mps 744 mmHg 87%
    13:00 -4°C° 0 mm 2 mps 744 mmHg 87%
    14:00 -4°C° 0 mm 2 mps 743 mmHg 86%
    15:00 -4°C° 0 mm 2 mps 743 mmHg 88%
    16:00 -5°C° 0 mm 2 mps 743 mmHg 90%
    17:00 -6°C° 0 mm 2 mps 743 mmHg 93%
    18:00 -6°C° 0 mm 2 mps 743 mmHg 92%
    19:00 -7°C° 0 mm 2 mps 743 mmHg 91%
    20:00 -8°C° 0 mm 3 mps 743 mmHg 90%
    21:00 -8°C° 0 mm 3 mps 743 mmHg 89%
    22:00 -8°C° 0 mm 3 mps 743 mmHg 88%
    23:00 -8°C° 0 mm 3 mps 743 mmHg 87%

    20 December, Thursday

    Time Temperature Precipitation Wind Pressure Humidity
    00:00 -8°C° 0 mm 3 mps 743 mmHg 86%
    01:00 -8°C° 0 mm 3 mps 742 mmHg 86%
    02:00 -8°C° 0 mm 3 mps 742 mmHg 85%
    03:00 -8°C° 0 mm 3 mps 742 mmHg 85%
    04:00 -8°C° 0 mm 3 mps 742 mmHg 84%
    05:00 -8°C° 0 mm 3 mps 741 mmHg 84%
    06:00 -8°C° 0 mm 3 mps 741 mmHg 83%
    07:00 -8°C° 0 mm 3 mps 741 mmHg 82%
    08:00 -8°C° 0 mm 3 mps 741 mmHg 82%
    09:00 -7°C° 0 mm 3 mps 741 mmHg 82%
    10:00 -6°C° 0 mm 3 mps 741 mmHg 81%
    11:00 -5°C° 0 mm 3 mps 741 mmHg 81%
    12:00 -5°C° 0 mm 3 mps 741 mmHg 82%
    13:00 -4°C° 0 mm 3 mps 740 mmHg 83%
    14:00 -3°C° 0 mm 2 mps 740 mmHg 84%
    15:00 -3°C° 0 mm 2 mps 740 mmHg 85%
    16:00 -4°C° 0 mm 2 mps 740 mmHg 86%
    17:00 -5°C° 0 mm 2 mps 740 mmHg 87%
    18:00 -5°C° 0 mm 2 mps 740 mmHg 87%
    19:00 -4°C° 0 mm 2 mps 740 mmHg 87%
    20:00 -4°C° 0 mm 2 mps 740 mmHg 87%
    21:00 -4°C° 0.1 mm 2 mps 740 mmHg 88%
    22:00 -4°C° 0.1 mm 2 mps 740 mmHg 89%
    23:00 -4°C° 0.1 mm 2 mps 740 mmHg 90%

    21 December, Friday

    Time Temperature Precipitation Wind Pressure Humidity
    00:00 -4°C° 0.2 mm 2 mps 740 mmHg 91%
    01:00 -4°C° 0.2 mm 2 mps 740 mmHg 92%
    02:00 -4°C° 0.2 mm 2 mps 740 mmHg 93%
    03:00 -4°C° 0.1 mm 2 mps 740 mmHg 93%
    04:00 -4°C° 0.1 mm 2 mps 739 mmHg 93%
    05:00 -4°C° 0.1 mm 2 mps 739 mmHg 93%
    06:00 -3°C° 0 mm 2 mps 739 mmHg 92%
    07:00 -3°C° 0 mm 2 mps 739 mmHg 91%
    08:00 -3°C° 0 mm 2 mps 739 mmHg 90%
    09:00 -3°C° 0 mm 2 mps 739 mmHg 89%
    10:00 -2°C° 0 mm 3 mps 739 mmHg 88%
    11:00 -1°C° 0 mm 3 mps 739 mmHg 87%
    12:00 0°C° 0 mm 3 mps 739 mmHg 87%
    13:00 0°C° 0 mm 3 mps 738 mmHg 87%
    14:00 +1°C° 0 mm 3 mps 738 mmHg 87%
    15:00 0°C° 0 mm 3 mps 738 mmHg 86%
    16:00 0°C° 0 mm 3 mps 738 mmHg 85%
    17:00 -1°C° 0 mm 3 mps 737 mmHg 85%
    18:00 -1°C° 0.2 mm 3 mps 737 mmHg 85%
    19:00 0°C° 0.2 mm 3 mps 737 mmHg 86%
    20:00 0°C° 0.2 mm 3 mps 736 mmHg 86%
    21:00 0°C° 0.2 mm 3 mps 736 mmHg 86%
    22:00 -1°C° 0.2 mm 4 mps 735 mmHg 86%
    23:00 -1°C° 0.2 mm 4 mps 735 mmHg 86%

    22 December, Saturday

    Time Temperature Precipitation Wind Pressure Humidity
    00:00 -1°C° 0.3 mm 4 mps 734 mmHg 86%
    01:00 0°C° 0.3 mm 4 mps 733 mmHg 86%
    02:00 0°C° 0.3 mm 4 mps 732 mmHg 86%
    03:00 0°C° 0.5 mm 5 mps 732 mmHg 87%
    04:00 0°C° 0.5 mm 5 mps 731 mmHg 88%
    05:00 0°C° 0.5 mm 5 mps 731 mmHg 88%
    06:00 0°C° 0.4 mm 5 mps 731 mmHg 88%
    07:00 +1°C° 0.4 mm 5 mps 731 mmHg 87%
    08:00 +1°C° 0.4 mm 6 mps 731 mmHg 87%
    09:00 +1°C° 0.1 mm 6 mps 731 mmHg 88%
    10:00 +1°C° 0.1 mm 6 mps 731 mmHg 88%
    11:00 +2°C° 0.1 mm 6 mps 731 mmHg 89%
    12:00 +2°C° 0.1 mm 6 mps 731 mmHg 88%
    13:00 +2°C° 0.1 mm 6 mps 731 mmHg 87%
    14:00 +2°C° 0.1 mm 6 mps 731 mmHg 87%
    15:00 +2°C° 0 mm 6 mps 731 mmHg 86%
    16:00 +2°C° 0 mm 5 mps 730 mmHg 86%
    17:00 +2°C° 0 mm 5 mps 730 mmHg 85%
    18:00 +2°C° 0.2 mm 5 mps 730 mmHg 86%
    19:00 +2°C° 0.2 mm 5 mps 730 mmHg 87%
    20:00 +2°C° 0.2 mm 5 mps 730 mmHg 88%
    21:00 +2°C° 0.2 mm 6 mps 730 mmHg 88%
    22:00 +2°C° 0.2 mm 6 mps 730 mmHg 88%
    23:00 +2°C° 0.2 mm 6 mps 730 mmHg 88%
    Show more